Time,TemperatureF,DewpointF,PressureIn,WindDirection,WindDirectionDegrees,WindSpeedMPH,WindSpeedGustMPH,Humidity,HourlyPrecipIn,Conditions,Clouds,dailyrainin,SoftwareType,DateUTC
2013-03-08 00:00:00,34.5,16.3,32.22,East,79,0.0,0.0,47,0.00,NA,NA,-99.99,wxupload 3.4,2013-03-08 05:00:00,
2013-03-08 00:02:00,34.5,16.3,32.22,NNE,14,0.0,0.0,47,0.00,NA,NA,-99.99,wxupload 3.4,2013-03-08 05:02:00,
2013-03-08 00:04:00,34.3,16.1,32.22,East,92,0.0,0.0,47,0.00,NA,NA,-99.99,wxupload 3.4,2013-03-08 05:04:00,
2013-03-08 00:10:00,34.5,17.3,32.22,NNW,331,0.0,0.0,49,0.00,NA,NA,-99.99,wxupload 3.4,2013-03-08 05:10:00,
2013-03-08 00:12:00,34.5,17.3,32.22,NW,311,0.0,0.0,49,0.00,NA,NA,-99.99,wxupload 3.4,2013-03-08 05:12:00,
2013-03-08 00:18:00,34.5,17.3,32.19,NW,311,0.0,0.0,49,0.00,NA,NA,-99.99,wxupload 3.4,2013-03-08 05:18:00,
2013-03-08 00:24:00,34.5,17.3,32.19,NW,318,0.0,0.0,49,0.00,NA,NA,-99.99,wxupload 3.4,2013-03-08 05:24:00,
2013-03-08 00:30:00,34.5,17.7,32.19,North,357,0.0,0.0,50,0.00,NA,NA,-99.99,wxupload 3.4,2013-03-08 05:30:00,
2013-03-08 00:36:00,34.9,18.1,32.22,NNE,19,0.0,0.0,50,0.00,NA,NA,-99.99,wxupload 3.4,2013-03-08 05:36:00,
2013-03-08 00:42:00,35.1,17.8,32.22,ESE,122,0.0,0.0,49,0.00,NA,NA,-99.99,wxupload 3.4,2013-03-08 05:42:00,
2013-03-08 00:48:00,34.9,17.1,32.22,ESE,122,0.0,0.0,48,0.00,NA,NA,-99.99,wxupload 3.4,2013-03-08 05:48:00,
2013-03-08 00:54:00,34.9,17.1,32.22,ESE,122,0.0,0.0,48,0.00,NA,NA,-99.99,wxupload 3.4,2013-03-08 05:54:00,
2013-03-08 01:00:00,34.7,17.0,32.22,ESE,122,0.0,0.0,48,0.00,NA,NA,-99.99,wxupload 3.4,2013-03-08 06:00:00,
2013-03-08 01:06:00,34.9,17.1,32.22,East,84,0.0,0.0,48,0.00,NA,NA,-99.99,wxupload 3.4,2013-03-08 06:06:00,
2013-03-08 01:12:00,34.9,16.1,32.22,NW,308,0.0,0.0,46,0.00,NA,NA,-99.99,wxupload 3.4,2013-03-08 06:12:00,
2013-03-08 01:18:00,35.1,16.3,32.22,ESE,110,0.0,0.0,46,0.00,NA,NA,-99.99,wxupload 3.4,2013-03-08 06:18:00,
2013-03-08 01:24:00,35.1,16.3,32.22,East,99,0.0,0.0,46,0.00,NA,NA,-99.99,wxupload 3.4,2013-03-08 06:24:00,
2013-03-08 01:30:00,34.9,16.1,32.22,ESE,118,0.0,0.0,46,0.00,NA,NA,-99.99,wxupload 3.4,2013-03-08 06:30:00,
2013-03-08 01:35:00,34.7,16.0,32.22,ENE,76,0.0,0.0,46,0.00,NA,NA,-99.99,wxupload 3.4,2013-03-08 06:35:00,
2013-03-08 01:42:00,34.7,16.0,32.22,SE,124,0.0,0.0,46,0.00,NA,NA,-99.99,wxupload 3.4,2013-03-08 06:42:00,
2013-03-08 01:48:00,34.5,15.8,32.22,East,80,0.0,4.0,46,0.00,NA,NA,-99.99,wxupload 3.4,2013-03-08 06:48:00,
2013-03-08 01:54:00,34.9,15.6,32.22,NNE,25,0.0,0.0,45,0.00,NA,NA,-99.99,wxupload 3.4,2013-03-08 06:54:00,
2013-03-08 02:00:00,34.7,15.5,32.22,NNE,25,0.0,0.0,45,0.00,NA,NA,-99.99,wxupload 3.4,2013-03-08 07:00:00,
2013-03-08 02:06:00,34.9,15.1,32.22,NNW,345,0.0,0.0,44,0.00,NA,NA,-99.99,wxupload 3.4,2013-03-08 07:06:00,
2013-03-08 02:12:00,34.9,14.6,32.22,NNW,331,0.0,0.0,43,0.00,NA,NA,-99.99,wxupload 3.4,2013-03-08 07:12:00,
2013-03-08 02:18:00,34.9,14.6,32.19,NNE,24,0.0,0.0,43,0.00,NA,NA,-99.99,wxupload 3.4,2013-03-08 07:18:00,
2013-03-08 02:24:00,34.7,14.4,32.19,NNE,28,0.0,0.0,43,0.00,NA,NA,-99.99,wxupload 3.4,2013-03-08 07:24:00,
2013-03-08 02:30:00,34.3,14.1,32.19,WNW,292,0.0,0.0,43,0.00,NA,NA,-99.99,wxupload 3.4,2013-03-08 07:30:00,
2013-03-08 02:36:00,34.3,13.5,32.19,NE,44,0.0,8.0,42,0.00,NA,NA,-99.99,wxupload 3.4,2013-03-08 07:36:00,
2013-03-08 02:42:00,34.3,13.5,32.19,NW,315,2.0,0.0,42,0.00,NA,NA,-99.99,wxupload 3.4,2013-03-08 07:42:00,
2013-03-08 02:48:00,34.5,13.2,32.19,NNE,27,0.0,4.0,41,0.00,NA,NA,-99.99,wxupload 3.4,2013-03-08 07:48:00,
2013-03-08 02:54:00,34.3,13.0,32.19,NNW,334,4.0,6.0,41,0.00,NA,NA,-99.99,wxupload 3.4,2013-03-08 07:54:00,
2013-03-08 03:00:00,34.3,12.4,32.19,North,353,0.0,0.0,40,0.00,NA,NA,-99.99,wxupload 3.4,2013-03-08 08:00:00,
2013-03-08 03:06:00,34.0,12.7,32.19,NW,317,0.0,0.0,41,0.00,NA,NA,-99.99,wxupload 3.4,2013-03-08 08:06:00,
2013-03-08 03:12:00,33.8,12.5,32.19,NE,48,0.0,4.0,41,0.00,NA,NA,-99.99,wxupload 3.4,2013-03-08 08:12:00,
2013-03-08 03:17:00,33.8,12.5,32.19,NNE,17,0.0,7.0,41,0.00,NA,NA,-99.99,wxupload 3.4,2013-03-08 08:17:00,
2013-03-08 03:24:00,33.8,12.5,32.19,North,0,0.0,2.0,41,0.00,NA,NA,-99.99,wxupload 3.4,2013-03-08 08:24:00,
2013-03-08 03:30:00,33.6,12.3,32.19,NE,45,0.0,4.0,41,0.00,NA,NA,-99.99,wxupload 3.4,2013-03-08 08:30:00,
2013-03-08 03:36:00,33.6,12.3,32.19,NW,324,0.0,0.0,41,0.00,NA,NA,-99.99,wxupload 3.4,2013-03-08 08:36:00,
2013-03-08 03:42:00,33.4,12.2,32.19,SSE,163,0.0,0.0,41,0.00,NA,NA,-99.99,wxupload 3.4,2013-03-08 08:42:00,
2013-03-08 03:48:00,33.3,12.0,32.19,ENE,77,3.0,4.0,41,0.00,NA,NA,-99.99,wxupload 3.4,2013-03-08 08:48:00,
2013-03-08 03:54:00,33.3,12.0,32.19,West,277,3.0,4.0,41,0.00,NA,NA,-99.99,wxupload 3.4,2013-03-08 08:54:00,
2013-03-08 04:00:00,33.6,12.3,32.19,NNE,14,3.0,5.0,41,0.00,NA,NA,-99.99,wxupload 3.4,2013-03-08 09:00:00,
2013-03-08 04:06:00,33.8,12.5,32.19,NNW,348,0.0,5.0,41,0.00,NA,NA,-99.99,wxupload 3.4,2013-03-08 09:06:00,
2013-03-08 04:12:00,33.8,12.5,32.19,NNE,20,3.0,6.0,41,0.00,NA,NA,-99.99,wxupload 3.4,2013-03-08 09:12:00,
2013-03-08 04:18:00,34.0,12.7,32.22,North,7,4.0,8.0,41,0.00,NA,NA,-99.99,wxupload 3.4,2013-03-08 09:18:00,
2013-03-08 04:24:00,34.0,12.7,32.22,NE,42,0.0,0.0,41,0.00,NA,NA,-99.99,wxupload 3.4,2013-03-08 09:24:00,
2013-03-08 04:30:00,34.2,12.8,32.22,WSW,244,0.0,8.0,41,0.00,NA,NA,-99.99,wxupload 3.4,2013-03-08 09:30:00,
2013-03-08 04:36:00,34.2,12.8,32.22,NE,41,0.0,0.0,41,0.00,NA,NA,-99.99,wxupload 3.4,2013-03-08 09:36:00,
2013-03-08 04:42:00,34.3,12.4,32.22,NNE,16,0.0,3.0,40,0.00,NA,NA,-99.99,wxupload 3.4,2013-03-08 09:42:00,
2013-03-08 04:48:00,34.3,12.4,32.22,NNE,29,0.0,0.0,40,0.00,NA,NA,-99.99,wxupload 3.4,2013-03-08 09:48:00,
2013-03-08 04:54:00,34.3,12.4,32.22,NNE,18,0.0,0.0,40,0.00,NA,NA,-99.99,wxupload 3.4,2013-03-08 09:54:00,
2013-03-08 05:00:00,34.3,13.0,32.22,NNW,333,0.0,0.0,41,0.00,NA,NA,-99.99,wxupload 3.4,2013-03-08 10:00:00,
2013-03-08 05:06:00,34.2,12.8,32.22,North,353,0.0,4.0,41,0.00,NA,NA,-99.99,wxupload 3.4,2013-03-08 10:06:00,
2013-03-08 05:12:00,34.3,13.0,32.22,NNW,327,0.0,0.0,41,0.00,NA,NA,-99.99,wxupload 3.4,2013-03-08 10:12:00,
2013-03-08 05:18:00,34.2,13.4,32.22,North,353,3.0,4.0,42,0.00,NA,NA,-99.99,wxupload 3.4,2013-03-08 10:18:00,
2013-03-08 05:24:00,34.2,13.4,32.22,West,273,3.0,6.0,42,0.00,NA,NA,-99.99,wxupload 3.4,2013-03-08 10:24:00,
2013-03-08 05:30:00,34.0,13.8,32.22,NW,326,0.0,0.0,43,0.00,NA,NA,-99.99,wxupload 3.4,2013-03-08 10:30:00,
2013-03-08 05:36:00,34.0,13.2,32.22,NNW,340,4.0,6.0,42,0.00,NA,NA,-99.99,wxupload 3.4,2013-03-08 10:36:00,
2013-03-08 05:42:00,34.0,13.8,32.22,North,353,3.0,6.0,43,0.00,NA,NA,-99.99,wxupload 3.4,2013-03-08 10:42:00,
2013-03-08 05:48:00,34.0,13.8,32.22,NNW,345,0.0,0.0,43,0.00,NA,NA,-99.99,wxupload 3.4,2013-03-08 10:48:00,
2013-03-08 05:54:00,33.8,14.1,32.22,North,357,4.0,8.0,44,0.00,NA,NA,-99.99,wxupload 3.4,2013-03-08 10:54:00,
2013-03-08 06:00:00,33.6,13.9,32.22,NNE,29,0.0,6.0,44,0.00,NA,NA,-99.99,wxupload 3.4,2013-03-08 11:00:00,
2013-03-08 06:06:00,33.8,13.6,32.22,NW,324,0.0,0.0,43,0.00,NA,NA,-99.99,wxupload 3.4,2013-03-08 11:06:00,
2013-03-08 06:12:00,33.6,13.9,32.22,WNW,282,0.0,0.0,44,0.00,NA,NA,-99.99,wxupload 3.4,2013-03-08 11:12:00,
2013-03-08 06:18:00,33.3,13.6,32.22,North,357,0.0,3.0,44,0.00,NA,NA,-99.99,wxupload 3.4,2013-03-08 11:18:00,
2013-03-08 06:24:00,33.1,14.0,32.22,NNW,338,0.0,0.0,45,0.00,NA,NA,-99.99,wxupload 3.4,2013-03-08 11:24:00,
2013-03-08 06:30:00,33.1,13.4,32.22,WNW,299,0.0,0.0,44,0.00,NA,NA,-99.99,wxupload 3.4,2013-03-08 11:30:00,
2013-03-08 06:36:00,32.9,12.8,32.22,North,2,0.0,2.0,43,0.00,NA,NA,-99.99,wxupload 3.4,2013-03-08 11:36:00,
2013-03-08 06:42:00,33.1,13.4,32.22,NE,48,0.0,3.0,44,0.00,NA,NA,-99.99,wxupload 3.4,2013-03-08 11:42:00,
2013-03-08 06:48:00,33.3,13.6,32.22,NNW,346,4.0,5.0,44,0.00,NA,NA,-99.99,wxupload 3.4,2013-03-08 11:48:00,
2013-03-08 06:54:00,33.4,13.3,32.22,NW,307,4.0,6.0,43,0.00,NA,NA,-99.99,wxupload 3.4,2013-03-08 11:54:00,
2013-03-08 07:00:00,33.6,13.4,32.22,NW,319,2.0,0.0,43,0.00,NA,NA,-99.99,wxupload 3.4,2013-03-08 12:00:00,
2013-03-08 07:06:00,33.6,13.9,32.22,North,357,2.0,3.0,44,0.00,NA,NA,-99.99,wxupload 3.4,2013-03-08 12:06:00,
2013-03-08 07:12:00,33.8,13.0,32.22,West,262,5.0,6.0,42,0.00,NA,NA,-99.99,wxupload 3.4,2013-03-08 12:12:00,
2013-03-08 07:18:00,34.0,12.7,32.25,NNW,345,4.0,4.0,41,0.00,NA,NA,-99.99,wxupload 3.4,2013-03-08 12:18:00,
2013-03-08 07:24:00,34.2,12.8,32.25,NW,325,6.0,8.0,41,0.00,NA,NA,-99.99,wxupload 3.4,2013-03-08 12:24:00,
2013-03-08 07:30:00,34.2,12.8,32.25,ENE,68,5.0,8.0,41,0.00,NA,NA,-99.99,wxupload 3.4,2013-03-08 12:30:00,
2013-03-08 07:36:00,34.3,13.5,32.22,North,0,3.0,4.0,42,0.00,NA,NA,-99.99,wxupload 3.4,2013-03-08 12:36:00,
2013-03-08 07:42:00,34.5,13.7,32.22,NE,44,3.0,6.0,42,0.00,NA,NA,-99.99,wxupload 3.4,2013-03-08 12:42:00,
2013-03-08 07:48:00,34.7,13.3,32.22,NNE,28,5.0,12.0,41,0.00,NA,NA,-99.99,wxupload 3.4,2013-03-08 12:48:00,
2013-03-08 07:54:00,34.7,13.3,32.22,North,353,6.0,10.0,41,0.00,NA,NA,-99.99,wxupload 3.4,2013-03-08 12:54:00,
2013-03-08 08:00:00,34.5,13.7,32.22,NW,323,3.0,7.0,42,0.00,NA,NA,-99.99,wxupload 3.4,2013-03-08 13:00:00,
2013-03-08 08:06:00,34.5,13.7,32.22,NNE,24,0.0,4.0,42,0.00,NA,NA,-99.99,wxupload 3.4,2013-03-08 13:06:00,
2013-03-08 08:12:00,34.9,13.5,32.22,North,1,3.0,5.0,41,0.00,NA,NA,-99.99,wxupload 3.4,2013-03-08 13:12:00,
2013-03-08 08:18:00,35.1,14.7,32.25,NNW,327,0.0,6.0,43,0.00,NA,NA,-99.99,wxupload 3.4,2013-03-08 13:18:00,
2013-03-08 08:24:00,35.2,14.4,32.25,North,8,4.0,6.0,42,0.00,NA,NA,-99.99,wxupload 3.4,2013-03-08 13:24:00,
2013-03-08 08:30:00,35.6,14.1,32.25,NNW,345,2.0,4.0,41,0.00,NA,NA,-99.99,wxupload 3.4,2013-03-08 13:30:00,
2013-03-08 08:36:00,35.8,14.3,32.25,North,5,0.0,3.0,41,0.00,NA,NA,-99.99,wxupload 3.4,2013-03-08 13:36:00,
2013-03-08 08:42:00,36.1,14.6,32.25,NNW,344,2.0,3.0,41,0.00,NA,NA,-99.99,wxupload 3.4,2013-03-08 13:42:00,
2013-03-08 08:48:00,36.1,14.6,32.25,North,4,0.0,3.0,41,0.00,NA,NA,-99.99,wxupload 3.4,2013-03-08 13:48:00,
2013-03-08 08:54:00,36.0,13.9,32.25,North,357,3.0,8.0,40,0.00,NA,NA,-99.99,wxupload 3.4,2013-03-08 13:54:00,
2013-03-08 09:00:00,35.8,13.7,32.25,NNW,343,4.0,4.0,40,0.00,NA,NA,-99.99,wxupload 3.4,2013-03-08 14:00:00,
2013-03-08 09:06:00,35.8,14.3,32.25,NW,326,0.0,4.0,41,0.00,NA,NA,-99.99,wxupload 3.4,2013-03-08 14:06:00,
2013-03-08 09:12:00,35.6,14.1,32.25,NNE,33,0.0,3.0,41,0.00,NA,NA,-99.99,wxupload 3.4,2013-03-08 14:12:00,
2013-03-08 09:18:00,35.6,14.1,32.25,NW,325,0.0,0.0,41,0.00,NA,NA,-99.99,wxupload 3.4,2013-03-08 14:18:00,
2013-03-08 09:24:00,35.6,13.6,32.25,NNW,341,2.0,7.0,40,0.00,NA,NA,-99.99,wxupload 3.4,2013-03-08 14:24:00,
2013-03-08 09:30:00,35.8,13.7,32.25,NW,307,3.0,6.0,40,0.00,NA,NA,-99.99,wxupload 3.4,2013-03-08 14:30:00,
2013-03-08 09:36:00,35.8,13.7,32.25,NE,41,0.0,3.0,40,0.00,NA,NA,-99.99,wxupload 3.4,2013-03-08 14:36:00,
2013-03-08 09:42:00,36.1,14.1,32.25,NE,36,0.0,4.0,40,0.00,NA,NA,-99.99,wxupload 3.4,2013-03-08 14:42:00,
2013-03-08 09:48:00,36.3,13.1,32.25,NNE,32,3.0,4.0,38,0.00,NA,NA,-99.99,wxupload 3.4,2013-03-08 14:48:00,
2013-03-08 09:54:00,36.7,12.1,32.25,NNE,27,4.0,7.0,36,0.00,NA,NA,-99.99,wxupload 3.4,2013-03-08 14:54:00,
2013-03-08 10:00:00,36.9,12.9,32.25,NNW,344,0.0,4.0,37,0.00,NA,NA,-99.99,wxupload 3.4,2013-03-08 15:00:00,
2013-03-08 10:06:00,37.2,11.3,32.25,NNW,337,6.0,8.0,34,0.00,NA,NA,-99.99,wxupload 3.4,2013-03-08 15:06:00,
2013-03-08 10:12:00,37.4,11.5,32.25,NNE,19,0.0,8.0,34,0.00,NA,NA,-99.99,wxupload 3.4,2013-03-08 15:12:00,
2013-03-08 10:18:00,37.6,11.0,32.25,NNE,13,3.0,5.0,33,0.00,NA,NA,-99.99,wxupload 3.4,2013-03-08 15:18:00,
2013-03-08 10:24:00,37.9,10.6,32.25,NE,47,4.0,8.0,32,0.00,NA,NA,-99.99,wxupload 3.4,2013-03-08 15:24:00,
2013-03-08 10:30:00,38.3,11.6,32.25,WNW,297,0.0,4.0,33,0.00,NA,NA,-99.99,wxupload 3.4,2013-03-08 15:30:00,
2013-03-08 10:36:00,38.5,11.1,32.25,NE,40,4.0,14.0,32,0.00,NA,NA,-99.99,wxupload 3.4,2013-03-08 15:36:00,
2013-03-08 10:42:00,38.7,10.5,32.25,NNE,26,6.0,6.0,31,0.00,NA,NA,-99.99,wxupload 3.4,2013-03-08 15:42:00,
2013-03-08 10:48:00,38.8,10.7,32.25,North,9,4.0,8.0,31,0.00,NA,NA,-99.99,wxupload 3.4,2013-03-08 15:48:00,
2013-03-08 10:54:00,39.0,10.8,32.25,NW,313,6.0,13.0,31,0.00,NA,NA,-99.99,wxupload 3.4,2013-03-08 15:54:00,
2013-03-08 11:00:00,39.4,10.4,32.25,NNW,345,4.0,6.0,30,0.00,NA,NA,-99.99,wxupload 3.4,2013-03-08 16:00:00,
2013-03-08 11:06:00,39.6,11.3,32.25,North,9,3.0,4.0,31,0.00,NA,NA,-99.99,wxupload 3.4,2013-03-08 16:06:00,
2013-03-08 11:12:00,39.7,10.7,32.25,North,2,3.0,6.0,30,0.00,NA,NA,-99.99,wxupload 3.4,2013-03-08 16:12:00,
2013-03-08 11:18:00,39.7,10.7,32.25,NNE,12,4.0,5.0,30,0.00,NA,NA,-99.99,wxupload 3.4,2013-03-08 16:18:00,
2013-03-08 11:24:00,40.1,11.1,32.25,NNW,341,4.0,6.0,30,0.00,NA,NA,-99.99,wxupload 3.4,2013-03-08 16:24:00,
2013-03-08 11:30:00,39.9,11.6,32.25,NW,323,4.0,5.0,31,0.00,NA,NA,-99.99,wxupload 3.4,2013-03-08 16:30:00,
2013-03-08 11:36:00,40.1,12.5,32.25,NNW,330,0.0,4.0,32,0.00,NA,NA,-99.99,wxupload 3.4,2013-03-08 16:36:00,
2013-03-08 11:42:00,40.1,11.8,32.25,NNW,334,5.0,8.0,31,0.00,NA,NA,-99.99,wxupload 3.4,2013-03-08 16:42:00,
2013-03-08 11:48:00,40.3,12.0,32.25,NNE,28,5.0,6.0,31,0.00,NA,NA,-99.99,wxupload 3.4,2013-03-08 16:48:00,
2013-03-08 11:54:00,40.3,12.0,32.25,NNE,31,5.0,8.0,31,0.00,NA,NA,-99.99,wxupload 3.4,2013-03-08 16:54:00,
2013-03-08 12:00:00,39.7,10.7,32.25,NNW,332,7.0,10.0,30,0.00,NA,NA,-99.99,wxupload 3.4,2013-03-08 17:00:00,
2013-03-08 12:06:00,39.7,11.5,32.25,NNW,335,3.0,6.0,31,0.00,NA,NA,-99.99,wxupload 3.4,2013-03-08 17:06:00,
2013-03-08 12:12:00,40.1,11.8,32.25,NNW,327,0.0,4.0,31,0.00,NA,NA,-99.99,wxupload 3.4,2013-03-08 17:12:00,
2013-03-08 12:18:00,40.1,11.1,32.25,NNW,328,4.0,8.0,30,0.00,NA,NA,-99.99,wxupload 3.4,2013-03-08 17:18:00,
2013-03-08 12:24:00,40.5,12.1,32.25,North,357,0.0,5.0,31,0.00,NA,NA,-99.99,wxupload 3.4,2013-03-08 17:24:00,
2013-03-08 12:30:00,41.5,13.1,32.25,NW,311,3.0,4.0,31,0.00,NA,NA,-99.99,wxupload 3.4,2013-03-08 17:30:00,
2013-03-08 12:36:00,41.7,12.5,32.25,SW,229,3.0,9.0,30,0.00,NA,NA,-99.99,wxupload 3.4,2013-03-08 17:36:00,
2013-03-08 12:42:00,41.7,13.2,32.25,North,0,3.0,6.0,31,0.00,NA,NA,-99.99,wxupload 3.4,2013-03-08 17:42:00,
2013-03-08 12:48:00,41.5,13.1,32.25,NNW,333,3.0,6.0,31,0.00,NA,NA,-99.99,wxupload 3.4,2013-03-08 17:48:00,
2013-03-08 12:54:00,41.7,13.2,32.25,North,0,4.0,6.0,31,0.00,NA,NA,-99.99,wxupload 3.4,2013-03-08 17:54:00,
2013-03-08 13:00:00,41.9,13.4,32.25,NW,325,5.0,8.0,31,0.00,NA,NA,-99.99,wxupload 3.4,2013-03-08 18:00:00,
2013-03-08 13:06:00,41.9,12.6,32.25,NW,317,6.0,10.0,30,0.00,NA,NA,-99.99,wxupload 3.4,2013-03-08 18:06:00,
2013-03-08 13:12:00,42.1,14.3,32.25,NNW,330,4.0,7.0,32,0.00,NA,NA,-99.99,wxupload 3.4,2013-03-08 18:12:00,
2013-03-08 13:18:00,42.4,13.9,32.25,NW,314,6.0,8.0,31,0.00,NA,NA,-99.99,wxupload 3.4,2013-03-08 18:18:00,
2013-03-08 13:24:00,42.1,13.6,32.25,NW,315,8.0,9.0,31,0.00,NA,NA,-99.99,wxupload 3.4,2013-03-08 18:24:00,
2013-03-08 13:30:00,42.1,13.6,32.25,NNE,12,4.0,8.0,31,0.00,NA,NA,-99.99,wxupload 3.4,2013-03-08 18:30:00,
2013-03-08 13:36:00,42.3,13.7,32.25,NNW,339,4.0,5.0,31,0.00,NA,NA,-99.99,wxupload 3.4,2013-03-08 18:36:00,
2013-03-08 13:42:00,42.3,14.4,32.25,ENE,67,7.0,9.0,32,0.00,NA,NA,-99.99,wxupload 3.4,2013-03-08 18:42:00,
2013-03-08 13:48:00,41.5,13.1,32.22,NW,315,6.0,10.0,31,0.00,NA,NA,-99.99,wxupload 3.4,2013-03-08 18:48:00,
2013-03-08 13:54:00,41.5,12.3,32.22,NNW,333,4.0,11.0,30,0.00,NA,NA,-99.99,wxupload 3.4,2013-03-08 18:54:00,
2013-03-08 14:00:00,41.2,13.5,32.22,NNE,19,5.0,7.0,32,0.00,NA,NA,-99.99,wxupload 3.4,2013-03-08 19:00:00,
2013-03-08 14:06:00,41.2,12.8,32.22,NNW,338,4.0,8.0,31,0.00,NA,NA,-99.99,wxupload 3.4,2013-03-08 19:06:00,
2013-03-08 14:12:00,41.2,13.5,32.22,NNW,334,5.0,7.0,32,0.00,NA,NA,-99.99,wxupload 3.4,2013-03-08 19:12:00,
2013-03-08 14:18:00,41.0,12.6,32.22,NNW,329,6.0,8.0,31,0.00,NA,NA,-99.99,wxupload 3.4,2013-03-08 19:18:00,
2013-03-08 14:24:00,40.8,13.9,32.22,NNW,330,5.0,8.0,33,0.00,NA,NA,-99.99,wxupload 3.4,2013-03-08 19:24:00,
2013-03-08 14:30:00,40.8,13.2,32.22,NNW,346,4.0,0.0,32,0.00,NA,NA,-99.99,wxupload 3.4,2013-03-08 19:30:00,
2013-03-08 14:36:00,41.2,13.5,32.22,NW,316,5.0,8.0,32,0.00,NA,NA,-99.99,wxupload 3.4,2013-03-08 19:36:00,
2013-03-08 14:42:00,41.2,13.5,32.22,North,353,3.0,4.0,32,0.00,NA,NA,-99.99,wxupload 3.4,2013-03-08 19:42:00,
2013-03-08 14:48:00,41.4,13.6,32.22,NW,316,0.0,0.0,32,0.00,NA,NA,-99.99,wxupload 3.4,2013-03-08 19:48:00,
2013-03-08 14:54:00,41.5,13.8,32.22,NW,310,4.0,8.0,32,0.00,NA,NA,-99.99,wxupload 3.4,2013-03-08 19:54:00,
2013-03-08 15:00:00,41.5,13.1,32.22,WNW,302,2.0,6.0,31,0.00,NA,NA,-99.99,wxupload 3.4,2013-03-08 20:00:00,
2013-03-08 15:06:00,41.5,13.8,32.22,NNW,327,4.0,6.0,32,0.00,NA,NA,-99.99,wxupload 3.4,2013-03-08 20:06:00,
2013-03-08 15:12:00,41.7,14.0,32.22,NE,45,4.0,7.0,32,0.00,NA,NA,-99.99,wxupload 3.4,2013-03-08 20:12:00,
2013-03-08 15:18:00,41.5,13.1,32.22,NW,325,5.0,6.0,31,0.00,NA,NA,-99.99,wxupload 3.4,2013-03-08 20:18:00,
2013-03-08 15:24:00,41.7,13.2,32.22,NNW,331,4.0,6.0,31,0.00,NA,NA,-99.99,wxupload 3.4,2013-03-08 20:24:00,
2013-03-08 15:30:00,41.7,14.0,32.22,NNW,341,3.0,8.0,32,0.00,NA,NA,-99.99,wxupload 3.4,2013-03-08 20:30:00,
2013-03-08 15:36:00,41.7,13.2,32.25,ENE,64,4.0,7.0,31,0.00,NA,NA,-99.99,wxupload 3.4,2013-03-08 20:36:00,
2013-03-08 15:42:00,42.3,13.7,32.25,North,353,3.0,5.0,31,0.00,NA,NA,-99.99,wxupload 3.4,2013-03-08 20:42:00,
2013-03-08 15:48:00,42.3,13.7,32.25,NW,310,3.0,8.0,31,0.00,NA,NA,-99.99,wxupload 3.4,2013-03-08 20:48:00,
2013-03-08 15:54:00,42.6,14.0,32.25,NW,315,0.0,4.0,31,0.00,NA,NA,-99.99,wxupload 3.4,2013-03-08 20:54:00,
2013-03-08 16:00:00,42.6,13.3,32.25,NNE,31,3.0,11.0,30,0.00,NA,NA,-99.99,wxupload 3.4,2013-03-08 21:00:00,
2013-03-08 16:06:00,42.3,13.7,32.25,NW,316,4.0,6.0,31,0.00,NA,NA,-99.99,wxupload 3.4,2013-03-08 21:06:00,
2013-03-08 16:12:00,42.3,13.7,32.25,NNW,333,4.0,8.0,31,0.00,NA,NA,-99.99,wxupload 3.4,2013-03-08 21:12:00,
2013-03-08 16:18:00,42.1,13.6,32.25,North,357,3.0,9.0,31,0.00,NA,NA,-99.99,wxupload 3.4,2013-03-08 21:18:00,
2013-03-08 16:24:00,41.9,13.4,32.25,NE,43,5.0,8.0,31,0.00,NA,NA,-99.99,wxupload 3.4,2013-03-08 21:24:00,
2013-03-08 16:30:00,41.7,13.2,32.25,NNE,13,4.0,8.0,31,0.00,NA,NA,-99.99,wxupload 3.4,2013-03-08 21:30:00,
2013-03-08 16:36:00,41.7,13.2,32.25,NE,37,3.0,6.0,31,0.00,NA,NA,-99.99,wxupload 3.4,2013-03-08 21:36:00,
2013-03-08 16:42:00,41.5,13.1,32.25,NNW,327,3.0,6.0,31,0.00,NA,NA,-99.99,wxupload 3.4,2013-03-08 21:42:00,
2013-03-08 16:48:00,41.5,12.3,32.28,NNE,14,4.0,10.0,30,0.00,NA,NA,-99.99,wxupload 3.4,2013-03-08 21:48:00,
2013-03-08 16:54:00,41.5,13.8,32.28,NE,38,0.0,0.0,32,0.00,NA,NA,-99.99,wxupload 3.4,2013-03-08 21:54:00,
2013-03-08 17:00:00,41.2,13.5,32.28,NNE,21,3.0,4.0,32,0.00,NA,NA,-99.99,wxupload 3.4,2013-03-08 22:00:00,
2013-03-08 17:06:00,41.0,12.6,32.28,NE,45,5.0,6.0,31,0.00,NA,NA,-99.99,wxupload 3.4,2013-03-08 22:06:00,
2013-03-08 17:12:00,40.8,13.2,32.28,North,353,0.0,0.0,32,0.00,NA,NA,-99.99,wxupload 3.4,2013-03-08 22:12:00,
2013-03-08 17:18:00,40.6,13.0,32.28,NNW,333,0.0,0.0,32,0.00,NA,NA,-99.99,wxupload 3.4,2013-03-08 22:18:00,
2013-03-08 17:24:00,40.1,13.2,32.28,NW,322,4.0,4.0,33,0.00,NA,NA,-99.99,wxupload 3.4,2013-03-08 22:24:00,
2013-03-08 17:30:00,39.7,12.9,32.28,ENE,69,3.0,9.0,33,0.00,NA,NA,-99.99,wxupload 3.4,2013-03-08 22:30:00,
2013-03-08 17:36:00,39.6,12.0,32.28,NE,39,5.0,8.0,32,0.00,NA,NA,-99.99,wxupload 3.4,2013-03-08 22:36:00,
2013-03-08 17:42:00,39.4,12.6,32.28,NNE,27,3.0,4.0,33,0.00,NA,NA,-99.99,wxupload 3.4,2013-03-08 22:42:00,
2013-03-08 17:48:00,39.2,12.4,32.31,North,357,3.0,6.0,33,0.00,NA,NA,-99.99,wxupload 3.4,2013-03-08 22:48:00,
2013-03-08 17:54:00,39.0,12.3,32.31,NE,39,4.0,8.0,33,0.00,NA,NA,-99.99,wxupload 3.4,2013-03-08 22:54:00,
2013-03-08 18:00:00,38.8,12.8,32.31,North,0,2.0,0.0,34,0.00,NA,NA,-99.99,wxupload 3.4,2013-03-08 23:00:00,
2013-03-08 18:06:00,38.5,13.1,32.31,NNW,336,0.0,0.0,35,0.00,NA,NA,-99.99,wxupload 3.4,2013-03-08 23:06:00,
2013-03-08 18:12:00,37.9,13.3,32.31,North,0,2.0,5.0,36,0.00,NA,NA,-99.99,wxupload 3.4,2013-03-08 23:12:00,
2013-03-08 18:18:00,37.9,13.3,32.31,North,6,0.0,0.0,36,0.00,NA,NA,-99.99,wxupload 3.4,2013-03-08 23:18:00,
2013-03-08 18:24:00,37.8,13.1,32.31,NW,311,2.0,4.0,36,0.00,NA,NA,-99.99,wxupload 3.4,2013-03-08 23:24:00,
2013-03-08 18:30:00,37.4,13.4,32.31,NE,36,0.0,0.0,37,0.00,NA,NA,-99.99,wxupload 3.4,2013-03-08 23:30:00,
2013-03-08 18:36:00,37.4,13.4,32.31,North,0,0.0,0.0,37,0.00,NA,NA,-99.99,wxupload 3.4,2013-03-08 23:36:00,
2013-03-08 18:42:00,37.2,14.5,32.31,NNW,327,0.0,4.0,39,0.00,NA,NA,-99.99,wxupload 3.4,2013-03-08 23:42:00,
2013-03-08 18:48:00,37.4,13.4,32.31,NE,45,3.0,5.0,37,0.00,NA,NA,-99.99,wxupload 3.4,2013-03-08 23:48:00,
2013-03-08 18:54:00,37.4,13.4,32.31,NNW,330,4.0,6.0,37,0.00,NA,NA,-99.99,wxupload 3.4,2013-03-08 23:54:00,
2013-03-08 19:00:00,37.2,13.9,32.31,North,0,2.0,6.0,38,0.00,NA,NA,-99.99,wxupload 3.4,2013-03-09 00:00:00,
2013-03-08 19:06:00,36.9,14.1,32.31,NNE,17,0.0,4.0,39,0.00,NA,NA,-99.99,wxupload 3.4,2013-03-09 00:06:00,
2013-03-08 19:12:00,36.7,14.0,32.31,WSW,258,0.0,0.0,39,0.00,NA,NA,-99.99,wxupload 3.4,2013-03-09 00:12:00,
2013-03-08 19:18:00,36.7,14.6,32.31,NNW,327,0.0,4.0,40,0.00,NA,NA,-99.99,wxupload 3.4,2013-03-09 00:18:00,
2013-03-08 19:24:00,36.7,14.0,32.31,NNE,13,0.0,5.0,39,0.00,NA,NA,-99.99,wxupload 3.4,2013-03-09 00:24:00,
2013-03-08 19:30:00,36.3,13.6,32.31,NNW,333,4.0,8.0,39,0.00,NA,NA,-99.99,wxupload 3.4,2013-03-09 00:30:00,
2013-03-08 19:36:00,36.1,14.1,32.34,NW,318,0.0,8.0,40,0.00,NA,NA,-99.99,wxupload 3.4,2013-03-09 00:36:00,
2013-03-08 19:42:00,36.0,13.9,32.34,North,7,0.0,0.0,40,0.00,NA,NA,-99.99,wxupload 3.4,2013-03-09 00:42:00,
2013-03-08 19:48:00,35.8,13.7,32.34,NNW,337,0.0,0.0,40,0.00,NA,NA,-99.99,wxupload 3.4,2013-03-09 00:48:00,
2013-03-08 19:54:00,35.8,13.7,32.34,NE,51,0.0,11.0,40,0.00,NA,NA,-99.99,wxupload 3.4,2013-03-09 00:54:00,
2013-03-08 20:00:00,35.6,13.6,32.34,NNW,329,0.0,0.0,40,0.00,NA,NA,-99.99,wxupload 3.4,2013-03-09 01:00:00,
2013-03-08 20:06:00,35.6,13.6,32.34,North,7,4.0,0.0,40,0.00,NA,NA,-99.99,wxupload 3.4,2013-03-09 01:06:00,
2013-03-08 20:12:00,35.6,13.6,32.34,NNW,333,3.0,5.0,40,0.00,NA,NA,-99.99,wxupload 3.4,2013-03-09 01:12:00,
2013-03-08 20:18:00,35.6,13.6,32.34,NNE,18,0.0,3.0,40,0.00,NA,NA,-99.99,wxupload 3.4,2013-03-09 01:18:00,
2013-03-08 20:24:00,35.6,13.6,32.34,WNW,301,0.0,0.0,40,0.00,NA,NA,-99.99,wxupload 3.4,2013-03-09 01:24:00,
2013-03-08 20:30:00,35.4,14.0,32.34,NNW,340,0.0,0.0,41,0.00,NA,NA,-99.99,wxupload 3.4,2013-03-09 01:30:00,
2013-03-08 20:36:00,35.1,13.6,32.34,North,8,0.0,4.0,41,0.00,NA,NA,-99.99,wxupload 3.4,2013-03-09 01:36:00,
2013-03-08 20:42:00,35.1,13.6,32.34,NW,314,2.0,5.0,41,0.00,NA,NA,-99.99,wxupload 3.4,2013-03-09 01:42:00,
2013-03-08 20:48:00,35.1,13.6,32.31,NNW,335,0.0,4.0,41,0.00,NA,NA,-99.99,wxupload 3.4,2013-03-09 01:48:00,
2013-03-08 20:54:00,34.7,13.3,32.31,North,10,2.0,4.0,41,0.00,NA,NA,-99.99,wxupload 3.4,2013-03-09 01:54:00,
2013-03-08 21:00:00,34.7,13.3,32.31,NW,324,0.0,0.0,41,0.00,NA,NA,-99.99,wxupload 3.4,2013-03-09 02:00:00,
2013-03-08 21:06:00,34.9,13.5,32.34,NNW,332,3.0,5.0,41,0.00,NA,NA,-99.99,wxupload 3.4,2013-03-09 02:06:00,
2013-03-08 21:12:00,34.9,13.5,32.34,NNE,24,3.0,4.0,41,0.00,NA,NA,-99.99,wxupload 3.4,2013-03-09 02:12:00,
2013-03-08 21:18:00,34.9,13.5,32.34,North,5,0.0,0.0,41,0.00,NA,NA,-99.99,wxupload 3.4,2013-03-09 02:18:00,
2013-03-08 21:24:00,34.7,13.3,32.34,North,353,3.0,5.0,41,0.00,NA,NA,-99.99,wxupload 3.4,2013-03-09 02:24:00,
2013-03-08 21:30:00,34.7,13.3,32.34,ENE,72,3.0,6.0,41,0.00,NA,NA,-99.99,wxupload 3.4,2013-03-09 02:30:00,
2013-03-08 21:36:00,34.5,13.2,32.34,North,0,2.0,0.0,41,0.00,NA,NA,-99.99,wxupload 3.4,2013-03-09 02:36:00,
2013-03-08 21:42:00,34.5,13.2,32.34,NW,323,3.0,6.0,41,0.00,NA,NA,-99.99,wxupload 3.4,2013-03-09 02:42:00,
2013-03-08 21:48:00,34.5,13.7,32.34,NNW,332,0.0,4.0,42,0.00,NA,NA,-99.99,wxupload 3.4,2013-03-09 02:48:00,
2013-03-08 21:54:00,34.3,13.5,32.34,West,266,0.0,3.0,42,0.00,NA,NA,-99.99,wxupload 3.4,2013-03-09 02:54:00,
2013-03-08 22:00:00,34.0,13.2,32.34,North,9,0.0,4.0,42,0.00,NA,NA,-99.99,wxupload 3.4,2013-03-09 03:00:00,
2013-03-08 22:06:00,34.0,13.2,32.34,West,280,0.0,2.0,42,0.00,NA,NA,-99.99,wxupload 3.4,2013-03-09 03:06:00,
2013-03-08 22:12:00,34.3,13.0,32.34,NNE,24,2.0,8.0,41,0.00,NA,NA,-99.99,wxupload 3.4,2013-03-09 03:12:00,
2013-03-08 22:18:00,34.2,12.8,32.34,North,357,4.0,6.0,41,0.00,NA,NA,-99.99,wxupload 3.4,2013-03-09 03:18:00,
2013-03-08 22:24:00,34.3,13.0,32.34,East,81,0.0,0.0,41,0.00,NA,NA,-99.99,wxupload 3.4,2013-03-09 03:24:00,
2013-03-08 22:30:00,34.2,13.4,32.34,NNE,23,0.0,0.0,42,0.00,NA,NA,-99.99,wxupload 3.4,2013-03-09 03:30:00,
2013-03-08 22:36:00,34.0,13.2,32.34,NW,320,0.0,2.0,42,0.00,NA,NA,-99.99,wxupload 3.4,2013-03-09 03:36:00,
2013-03-08 22:42:00,34.0,12.7,32.34,WSW,239,0.0,4.0,41,0.00,NA,NA,-99.99,wxupload 3.4,2013-03-09 03:42:00,
2013-03-08 22:48:00,34.3,13.0,32.34,NE,34,5.0,12.0,41,0.00,NA,NA,-99.99,wxupload 3.4,2013-03-09 03:48:00,
2013-03-08 22:54:00,34.2,12.8,32.34,NW,320,0.0,5.0,41,0.00,NA,NA,-99.99,wxupload 3.4,2013-03-09 03:54:00,
2013-03-08 23:00:00,34.3,13.0,32.34,NNE,28,0.0,0.0,41,0.00,NA,NA,-99.99,wxupload 3.4,2013-03-09 04:00:00,
2013-03-08 23:06:00,34.2,12.8,32.31,NNW,343,2.0,4.0,41,0.00,NA,NA,-99.99,wxupload 3.4,2013-03-09 04:06:00,
2013-03-08 23:12:00,34.2,12.8,32.31,WNW,297,0.0,0.0,41,0.00,NA,NA,-99.99,wxupload 3.4,2013-03-09 04:12:00,
2013-03-08 23:18:00,34.0,13.2,32.34,North,357,0.0,2.0,42,0.00,NA,NA,-99.99,wxupload 3.4,2013-03-09 04:18:00,
2013-03-08 23:24:00,34.0,13.2,32.34,NE,40,0.0,0.0,42,0.00,NA,NA,-99.99,wxupload 3.4,2013-03-09 04:24:00,
2013-03-08 23:30:00,34.2,12.8,32.34,NNE,17,0.0,4.0,41,0.00,NA,NA,-99.99,wxupload 3.4,2013-03-09 04:30:00,
2013-03-08 23:36:00,34.0,13.2,32.34,NE,39,0.0,0.0,42,0.00,NA,NA,-99.99,wxupload 3.4,2013-03-09 04:36:00,
2013-03-08 23:42:00,33.8,13.0,32.34,NW,315,3.0,4.0,42,0.00,NA,NA,-99.99,wxupload 3.4,2013-03-09 04:42:00,
2013-03-08 23:48:00,33.8,13.0,32.34,NW,317,4.0,5.0,42,0.00,NA,NA,-99.99,wxupload 3.4,2013-03-09 04:48:00,
2013-03-08 23:54:00,33.6,13.4,32.34,North,357,0.0,0.0,43,0.00,NA,NA,-99.99,wxupload 3.4,2013-03-09 04:54:00,